#datint,netname,site,siteID,timestamp,IntT,BattV,AirT2,AirT,AirT_Avg,AirT_Max,AirT_Min,RH_Avg,RH_Max,RH_Min,EA_Avg,Td_Avg,Td_Max,Td_Min,WindS_Smp,WindS_Avg,WindD_Avg,WindD_SD,WindS_Max,ETo,ETr,SoilT4,SoilT8,SoilVWC8,SolarW_Avg,wetstate_Avg,wetT_Avg,Precip_accum,Precip_WPG,Precip_TB
15min,AgWx,beryljct,423,20AUG2018:01:00:00,63.0,12.95,63.3,64.4,63.2,64.6,61.2,38,52,30,0.702,37.1,43.4,32.4,1.71,3.3,311,1.9,4.9,0.00015,0.00026,76.7,77.3,16,0,0,60.6,16.48,0.00,0.00
15min,AgWx,beryljct,423,20AUG2018:01:15:00,62.6,12.95,62.8,63.0,62.8,64.2,61.6,40,48,33,0.791,37.8,42.5,33.9,2.258,2.7,309,0.7,3.7,0.00006,0.00013,76.4,77.2,16,0,0,60.2,16.48,0.00,0.00
15min,AgWx,beryljct,423,20AUG2018:01:30:00,62.1,12.95,61.1,60.5,61.3,63.2,60.1,49,58,40,0.874,41.9,45.3,38.5,1.776,1.1,242,34,2.5,-0.00020,-0.00027,76.1,76.7,16,0,0,58.7,16.48,0.00,0.00
15min,AgWx,beryljct,423,20AUG2018:01:45:00,61.5,12.94,60.3,58.7,60.3,62.4,58.2,50,64,36,1.044,41.1,46.5,35.0,0,0.4,223,0.0,1.8,-0.00033,-0.00050,75.9,76.6,16,0,0,57.4,16.48,0.00,0.00
15min,AgWx,beryljct,423,20AUG2018:02:00:00,60.6,12.92,57.2,57.3,57.3,58.6,56.3,64,73,54,1.010,45.2,47.8,41.2,0.855,0.2,223,0.1,0.9,-0.00033,-0.00051,75.6,77.0,16,0,0,55.3,16.48,0.00,0.00
15min,AgWx,beryljct,423,20AUG2018:02:15:00,59.8,12.92,56.5,55.2,56.6,57.8,55.2,66,73,57,1.073,45.4,47.3,42.7,0.789,1.4,137,12,4.5,-0.00018,-0.00025,75.3,76.9,16,0,0,54.5,16.48,0.00,0.00
15min,AgWx,beryljct,423,20AUG2018:02:30:00,59.2,12.91,57.6,58.4,57.0,58.4,55.0,61,73,54,0.906,43.8,46.6,42.0,1.03,2.3,167,18,3.9,-0.00008,-0.00009,75.1,76.8,16,0,0,54.8,16.48,0.00,0.00
15min,AgWx,beryljct,423,20AUG2018:02:45:00,58.9,12.91,58.0,58.2,57.9,59.0,57.0,56,62,49,0.984,42.4,44.2,39.7,0,1.4,180,0.6,2.5,-0.00017,-0.00021,74.8,76.7,16,0,0,56.0,16.48,0.00,0.00
15min,AgWx,beryljct,423,20AUG2018:03:00:00,58.6,12.91,56.8,56.7,56.9,58.2,56.3,65,69,61,1.082,45.2,46.7,43.8,0,0.0,180,0.0,0.4,-0.00035,-0.00057,74.5,76.6,16,0,0,54.8,16.48,0.00,0.00
15min,AgWx,beryljct,423,20AUG2018:03:15:00,58.2,12.89,57.1,57.8,56.8,57.8,55.8,66,75,55,0.900,45.6,48.0,41.8,0,0.6,180,0.1,3.4,-0.00028,-0.00041,74.3,76.5,16,0,0,53.7,16.49,0.00,0.00
15min,AgWx,beryljct,423,20AUG2018:03:30:00,57.9,12.9,55.7,55.6,55.7,57.9,55.0,67,73,55,0.975,45.0,47.0,41.8,2.039,1.7,180,0.3,3.0,-0.00015,-0.00019,74.0,76.4,16,0,0,53.9,16.49,0.00,0.00
15min,AgWx,beryljct,423,20AUG2018:03:45:00,57.4,12.89,55.7,54.1,55.7,57.2,53.8,68,78,56,1.111,45.4,47.7,41.8,0,0.5,184,15,2.1,-0.00028,-0.00041,73.8,75.8,16,0,0,54.0,16.49,0.00,0.00
15min,AgWx,beryljct,423,20AUG2018:04:00:00,56.9,12.88,53.9,53.8,53.7,54.1,53.2,78,81,76,1.090,47.2,47.8,46.6,0.986,0.1,255,0.3,1.0,-0.00031,-0.00049,73.5,75.7,16,0,0,52.0,16.49,0.00,0.00
15min,AgWx,beryljct,423,20AUG2018:04:15:00,56.5,12.88,54.3,54.8,54.0,54.8,53.4,76,82,69,1.036,46.6,48.1,44.8,2.806,0.2,238,14,3.3,-0.00031,-0.00048,73.3,75.5,16,0,0,51.7,16.49,0.00,0.00
15min,AgWx,beryljct,423,20AUG2018:04:30:00,56.2,12.88,54.8,55.5,54.5,55.5,53.6,67,75,56,0.884,43.8,46.0,40.1,0.395,0.9,179,0.4,2.7,-0.00023,-0.00033,73.1,75.9,16,0,0,52.7,16.49,0.00,0.00
15min,AgWx,beryljct,423,20AUG2018:04:45:00,55.9,12.87,53.7,54.5,53.6,55.6,52.9,76,80,61,1.031,46.1,47.2,42.2,0,0.0,179,0.0,0.4,-0.00033,-0.00052,72.9,75.8,16,0,0,52.0,16.49,0.00,0.00
15min,AgWx,beryljct,423,20AUG2018:05:00:00,55.7,12.87,54.8,53.6,54.7,55.7,53.4,72,83,62,1.128,45.9,48.5,42.6,1.008,0.4,186,8.4,1.2,-0.00029,-0.00044,72.6,75.7,16,0,0,52.8,16.49,0.00,0.00
15min,AgWx,beryljct,423,20AUG2018:05:15:00,55.8,12.86,56.0,56.9,55.4,56.9,53.1,65,83,54,0.862,43.8,48.2,40.7,0,0.5,203,0.0,1.3,-0.00028,-0.00041,72.4,75.1,16,0,0,53.4,16.49,0.00,0.00
15min,AgWx,beryljct,423,20AUG2018:05:30:00,56.3,12.86,56.7,55.9,56.6,58.2,55.1,64,78,49,1.092,44.5,48.6,39.1,0.548,0.1,202,0.3,0.6,-0.00035,-0.00055,72.2,75.4,16,0,0,55.4,16.49,0.00,0.00
15min,AgWx,beryljct,423,20AUG2018:05:45:00,56.6,12.86,55.7,56.0,55.5,56.5,54.7,69,79,52,0.928,45.2,48.6,39.0,0,0.3,202,0.1,0.9,-0.00031,-0.00047,72.0,75.3,16,0,0,55.0,16.49,0.00,0.00
15min,AgWx,beryljct,423,20AUG2018:06:00:00,56.9,12.86,56.2,55.9,56.0,56.3,55.7,71,77,59,1.099,46.7,48.8,41.8,1.271,0.8,201,1.3,2.2,-0.00025,-0.00036,71.8,75.2,16,0,0,55.8,16.49,0.00,0.00
15min,AgWx,beryljct,423,20AUG2018:06:15:00,57.0,12.86,55.4,55.1,55.3,56.0,54.9,72,76,67,1.073,46.4,47.5,44.6,0,0.6,197,0.1,1.4,0.00005,0.00009,71.6,75.1,16,0,0,54.9,16.49,0.00,0.00
15min,AgWx,beryljct,423,20AUG2018:06:30:00,57.0,12.86,55.7,55.3,55.5,55.8,55.1,74,79,67,1.149,47.2,49.3,44.9,0.57,0.0,197,0.0,0.6,0.00001,0.00001,71.5,75.0,16,0,0,55.0,16.49,0.00,0.00
15min,AgWx,beryljct,423,20AUG2018:06:45:00,57.0,12.86,55.6,55.2,55.4,55.8,55.1,79,82,74,1.144,49.0,50.1,47.5,2.126,0.9,197,0.1,2.1,0.00006,0.00010,71.3,74.9,16,0,0,54.8,16.49,0.00,0.00
15min,AgWx,beryljct,423,20AUG2018:07:00:00,57.1,12.85,55.9,55.7,55.6,56.0,55.1,74,78,64,1.090,47.4,48.7,43.9,2.499,2.0,198,0.5,2.7,0.00016,0.00027,71.2,74.7,16,2,0,55.8,16.49,0.00,0.00
15min,AgWx,beryljct,423,20AUG2018:07:15:00,57.3,12.86,57.2,57.5,56.8,57.6,55.8,63,72,55,0.896,44.4,47.4,41.7,1.469,1.5,197,0.0,2.3,0.00022,0.00034,71.0,74.6,16,9,0,56.8,16.49,0.00,0.00
15min,AgWx,beryljct,423,20AUG2018:07:30:00,57.4,12.87,56.4,55.6,56.4,57.6,55.6,68,76,55,1.130,45.9,48.2,41.7,0.526,1.0,197,0.0,1.6,0.00021,0.00029,70.9,74.5,16,18,0,56.6,16.49,0.00,0.00
15min,AgWx,beryljct,423,20AUG2018:07:45:00,57.1,12.9,56.2,55.5,56.0,56.5,55.5,70,74,65,1.106,46.3,47.7,44.9,2.258,1.1,197,0.0,3.2,0.00026,0.00034,70.8,74.4,16,25,0,55.8,16.49,0.00,0.00
15min,AgWx,beryljct,423,20AUG2018:08:00:00,57.0,12.91,56.8,57.9,56.4,57.9,54.8,69,76,64,1.137,46.5,48.3,44.1,2.017,1.8,197,0.1,3.4,0.00078,0.00093,70.6,74.3,16,115,0,64.5,16.49,0.00,0.00
15min,AgWx,beryljct,423,20AUG2018:08:15:00,58.8,12.96,60.7,62.1,60.2,62.1,58.0,65,70,57,1.171,48.3,51.3,43.7,1.008,1.3,197,0.1,2.6,0.00127,0.00145,70.5,73.7,16,213,0,80.2,16.49,0.00,0.00
15min,AgWx,beryljct,423,20AUG2018:08:30:00,61.4,12.99,62.5,62.9,62.3,62.9,61.9,66,71,61,1.296,50.8,52.8,48.5,0,0.5,197,0.1,1.3,0.00125,0.00137,70.4,73.6,16,202,0,82.1,16.48,0.00,0.00
15min,AgWx,beryljct,423,20AUG2018:08:45:00,63.9,13.1,64.1,64.7,63.9,64.7,62.9,66,71,62,1.374,52.5,54.4,50.6,0.855,0.2,197,0.1,1.0,0.00169,0.00182,70.3,74.0,16,282,0,88.1,16.48,0.00,0.00
15min,AgWx,beryljct,423,20AUG2018:09:00:00,66.1,13.21,65.4,65.9,65.2,66.0,64.5,65,73,57,1.369,52.9,55.7,50.1,0,0.1,197,0.0,1.1,0.00153,0.00164,70.2,73.9,15,240,0,86.7,16.48,0.00,0.00
15min,AgWx,beryljct,423,20AUG2018:09:15:00,68.3,13.38,67.3,68.0,67.1,68.0,65.9,60,67,53,1.373,52.7,55.6,49.5,0.767,0.4,197,0.1,1.0,0.00215,0.00233,70.2,73.8,15,338,0,92.4,16.48,0.00,0.00
15min,AgWx,beryljct,423,20AUG2018:09:30:00,70.7,13.74,69.5,71.4,69.2,71.4,67.9,55,66,36,0.947,52.2,56.4,43.2,1.491,0.4,202,20,1.6,0.00276,0.00299,70.2,73.7,15,434,0,97.1,16.47,0.00,0.00
15min,AgWx,beryljct,423,20AUG2018:09:45:00,73.4,14.05,72.6,74.1,72.4,74.3,71.1,40,53,27,1.003,46.3,53.3,38.2,2.477,1.9,324,22,3.2,0.00304,0.00351,70.2,73.6,15,427,0,98.0,16.47,0.00,0.00
15min,AgWx,beryljct,423,20AUG2018:10:00:00,75.8,13.53,74.1,74.1,74.1,75.1,73.2,36,47,28,0.944,44.9,52.2,39.5,1.228,1.7,17,4.0,3.2,0.00250,0.00293,70.3,73.5,15,315,0,95.5,16.47,0.00,0.00
15min,AgWx,beryljct,423,20AUG2018:10:15:00,77.2,13.96,75.3,76.4,75.2,76.6,73.7,37,51,29,1.187,47.2,56.7,41.1,1.469,1.5,7.9,10,3.2,0.00395,0.00444,70.5,73.4,15,569,0,100.0,16.46,0.00,0.00
15min,AgWx,beryljct,423,20AUG2018:10:30:00,80.3,13.91,77.5,77.5,77.6,78.4,76.4,39,48,31,1.523,50.5,56.5,45.1,3.946,1.2,28,31,4.6,0.00463,0.00512,70.6,73.3,15,663,0,116.0,16.46,0.00,0.00
15min,AgWx,beryljct,423,20AUG2018:10:45:00,82.0,13.9,79.8,83.0,79.5,83.0,77.5,41,53,28,1.072,53.2,59.5,45.8,10.74,4.2,132,44,12.0,0.00452,0.00540,70.9,73.3,15,572,0,106.1,16.46,0.00,0.00
15min,AgWx,beryljct,423,20AUG2018:11:00:00,83.6,13.95,83.1,83.0,83.2,83.8,82.5,29,32,26,1.152,47.9,50.5,44.8,7.585,10.6,194,15,17.1,0.00653,0.00860,71.1,73.2,15,714,0,102.2,16.46,0.00,0.00
15min,AgWx,beryljct,423,20AUG2018:11:15:00,84.7,13.85,83.8,84.8,83.8,84.8,82.7,29,36,24,1.138,48.3,53.2,44.0,10.7,10.7,205,15,19.3,0.00681,0.00891,71.5,73.2,15,752,0,103.4,16.45,0.00,0.00
15min,AgWx,beryljct,423,20AUG2018:11:30:00,85.6,13.85,84.0,83.8,84.3,85.5,83.4,27,31,23,1.140,47.1,49.5,43.3,12.69,13.2,208,15,20.7,0.00722,0.00970,71.8,73.1,15,755,0,101.5,16.45,0.00,0.00
15min,AgWx,beryljct,423,20AUG2018:11:45:00,86.1,13.82,84.9,85.7,84.9,85.8,84.0,28,33,24,1.176,47.9,52.6,44.6,12.39,13.1,205,13,19.9,0.00761,0.01012,72.2,73.1,15,819,0,102.7,16.45,0.00,0.00
15min,AgWx,beryljct,423,20AUG2018:12:00:00,86.9,13.81,85.9,85.8,86.1,86.7,85.5,26,28,23,1.098,47.1,49.3,44.1,14.6,14.3,200,13,21.6,0.00807,0.01083,72.7,73.1,15,848,0,103.3,16.45,0.00,0.00
15min,AgWx,beryljct,423,20AUG2018:12:15:00,87.4,13.82,85.7,86.4,85.9,86.4,85.5,27,29,24,1.090,47.9,50.1,45.0,10.08,13.8,210,10,20.3,0.00810,0.01078,73.2,73.2,15,868,0,103.1,16.45,0.00,0.00
15min,AgWx,beryljct,423,20AUG2018:12:30:00,87.9,13.39,86.5,86.7,86.6,87.5,86.0,25,29,22,1.045,46.5,50.1,43.4,17.01,15.2,205,13,22.0,0.00855,0.01149,73.6,73.2,15,900,0,103.5,16.45,0.00,0.00
15min,AgWx,beryljct,423,20AUG2018:12:45:00,88.3,13.4,86.7,86.9,86.9,87.8,86.1,24,29,21,1.068,46.0,49.8,42.4,13.11,15.7,207,12,21.7,0.00876,0.01182,74.2,73.3,15,917,0,103.2,16.45,0.00,0.00
15min,AgWx,beryljct,423,20AUG2018:13:00:00,88.7,13.4,86.7,87.9,86.9,87.9,86.3,25,28,23,1.140,47.2,50.1,44.3,12.69,15.5,204,15,23.8,0.00876,0.01176,74.7,73.3,15,929,0,102.7,16.45,0.00,0.00
15min,AgWx,beryljct,423,20AUG2018:13:15:00,88.9,13.38,86.4,87.5,86.7,88.1,84.8,26,30,23,1.105,48.0,52.3,44.6,19.49,14.9,203,12,22.9,0.00802,0.01086,75.3,73.4,15,816,0,101.0,16.45,0.00,0.00
15min,AgWx,beryljct,423,20AUG2018:13:30:00,89.2,13.39,87.1,87.3,87.4,87.8,86.8,26,29,24,1.093,48.3,51.0,46.3,16.7,18.3,203,13,27.0,0.00942,0.01278,75.9,73.5,15,988,0,102.5,16.45,0.00,0.00
15min,AgWx,beryljct,423,20AUG2018:13:45:00,89.4,13.35,87.2,86.0,87.5,88.3,86.0,25,28,23,1.091,47.8,50.9,45.6,15.26,18.6,208,12,26.3,0.00884,0.01223,76.5,73.7,15,877,0,101.1,16.45,0.00,0.00
15min,AgWx,beryljct,423,20AUG2018:14:00:00,89.6,13.35,87.9,87.8,88.0,88.9,86.1,24,28,21,1.089,47.1,50.9,44.1,16.66,18.5,197,12,27.7,0.00877,0.01219,77.1,73.8,15,851,0,100.3,16.46,0.00,0.00
15min,AgWx,beryljct,423,20AUG2018:14:15:00,90.3,13.34,88.5,88.9,88.7,89.2,87.7,25,27,23,1.151,48.4,51.1,46.5,18.92,18.2,193,11,24.8,0.00961,0.01305,77.6,73.9,15,986,0,102.5,16.45,0.00,0.00
15min,AgWx,beryljct,423,20AUG2018:14:30:00,90.1,13.36,87.1,89.0,87.3,89.0,84.9,26,28,23,1.069,47.7,49.9,45.8,20.23,17.0,201,14,25.7,0.00743,0.01053,78.1,74.1,15,658,0,96.2,16.46,0.00,0.00
15min,AgWx,beryljct,423,20AUG2018:14:45:00,90.5,13.33,87.8,88.0,88.1,89.2,87.2,25,29,23,1.163,47.9,51.4,45.8,13.09,19.6,198,12,25.5,0.00874,0.01228,78.6,74.3,15,833,0,99.2,16.46,0.00,0.00
15min,AgWx,beryljct,423,20AUG2018:15:00:00,90.9,13.34,88.4,88.6,88.7,89.5,87.8,24,26,23,1.075,47.6,49.3,46.2,18.02,20.2,190,12,26.2,0.00909,0.01276,79.1,74.4,15,869,0,98.8,16.46,0.00,0.00
15min,AgWx,beryljct,423,20AUG2018:15:15:00,90.8,13.32,87.5,88.4,87.7,89.2,85.8,25,29,23,1.221,48.0,51.1,45.2,14.82,15.9,201,13,23.7,0.00731,0.01031,79.5,74.6,15,665,0,96.8,16.46,0.00,0.00
15min,AgWx,beryljct,423,20AUG2018:15:30:00,90.4,13.32,86.5,87.6,86.8,88.5,85.5,28,30,25,1.158,49.5,52.0,47.2,10.59,15.2,212,15,22.8,0.00688,0.00966,79.9,74.8,15,640,0,95.5,16.46,0.00,0.00
15min,AgWx,beryljct,423,20AUG2018:15:45:00,90.7,13.31,88.1,87.9,88.3,89.3,87.7,26,28,24,1.219,49.1,50.9,47.4,18.72,19.2,203,14,27.2,0.00852,0.01195,80.2,75.0,15,809,0,97.8,16.46,0.00,0.00
15min,AgWx,beryljct,423,20AUG2018:16:00:00,90.8,13.33,88.2,89.0,88.3,89.1,87.3,26,28,23,1.160,48.8,50.7,46.5,23.02,18.3,190,13,26.5,0.00765,0.01094,80.4,75.2,15,691,0,95.7,16.46,0.00,0.00
15min,AgWx,beryljct,423,20AUG2018:16:15:00,90.9,13.34,87.5,87.1,87.9,89.0,86.5,26,28,24,1.140,48.9,50.1,47.4,19.69,18.3,197,16,28.9,0.00652,0.00973,80.5,75.4,15,481,0,94.2,16.46,0.00,0.00
15min,AgWx,beryljct,423,20AUG2018:16:30:00,90.4,13.34,86.8,87.3,87.0,87.6,86.6,27,29,25,1.211,48.6,50.6,47.0,11.05,18.0,201,11,25.6,0.00644,0.00957,80.6,75.6,15,508,0,93.5,16.46,0.00,0.00
15min,AgWx,beryljct,423,20AUG2018:16:45:00,89.9,13.38,86.9,87.2,87.1,87.5,86.2,26,29,24,1.123,47.7,51.2,46.5,13.94,18.4,193,9.5,26.3,0.00596,0.00912,80.6,75.7,15,398,0,92.1,16.46,0.00,0.00
15min,AgWx,beryljct,423,20AUG2018:17:00:00,89.6,13.35,87.0,87.8,87.1,88.0,86.3,26,29,24,1.173,48.4,50.2,47.0,15.85,17.8,198,11,26.7,0.00612,0.00921,80.7,75.9,15,477,0,92.7,16.46,0.00,0.00
15min,AgWx,beryljct,423,20AUG2018:17:15:00,90.2,13.33,87.9,87.8,88.1,88.9,87.3,26,29,25,1.134,49.3,51.3,47.8,22.58,17.2,193,9.7,27.0,0.00682,0.00990,80.8,76.0,15,588,0,93.9,16.46,0.00,0.00
15min,AgWx,beryljct,423,20AUG2018:17:30:00,90.3,13.34,87.4,87.7,87.6,87.9,87.1,26,28,24,1.148,48.4,49.9,46.8,15.32,19.1,194,9.4,27.1,0.00634,0.00963,80.8,76.2,15,468,0,91.6,16.46,0.00,0.00
15min,AgWx,beryljct,423,20AUG2018:17:45:00,90.3,13.35,87.2,86.7,87.4,87.9,86.7,27,30,25,1.185,49.4,52.0,47.9,22.47,17.1,196,12,25.1,0.00578,0.00874,80.9,76.3,15,432,0,91.5,16.46,0.00,0.00
15min,AgWx,beryljct,423,20AUG2018:18:00:00,90.0,13.33,87.3,87.3,87.4,88.2,86.6,27,29,26,1.234,49.2,51.2,48.0,17.87,17.9,195,13,25.4,0.00561,0.00868,81.0,76.4,15,390,0,90.1,16.46,0.00,0.00
15min,AgWx,beryljct,423,20AUG2018:18:15:00,90.0,13.34,87.0,87.0,87.2,87.6,86.8,29,31,27,1.245,50.7,52.2,49.7,19.03,17.0,193,10,23.9,0.00562,0.00851,81.2,76.5,15,425,0,90.1,16.46,0.00,0.00
15min,AgWx,beryljct,423,20AUG2018:18:30:00,89.7,13.34,86.7,86.9,86.9,87.1,86.6,29,30,28,1.276,50.8,51.4,50.1,10.63,17.1,195,10,25.3,0.00504,0.00789,81.2,76.6,15,332,0,88.3,16.46,0.00,0.00
15min,AgWx,beryljct,423,20AUG2018:18:45:00,89.2,13.33,86.1,86.2,86.3,86.9,85.9,30,31,29,1.275,51.2,52.6,49.8,13.79,14.4,205,14,23.0,0.00423,0.00667,81.4,76.7,15,282,0,87.3,16.46,0.00,0.00
15min,AgWx,beryljct,423,20AUG2018:19:00:00,88.7,13.37,86.1,86.2,86.3,86.8,85.8,29,31,28,1.242,50.8,51.9,49.7,17.36,16.5,199,11,22.8,0.00423,0.00691,81.5,76.8,15,229,0,86.7,16.46,0.00,0.00
15min,AgWx,beryljct,423,20AUG2018:19:15:00,87.9,13.28,85.8,85.8,85.9,86.4,85.7,30,31,29,1.268,50.7,51.2,50.0,18.61,17.8,199,11,24.8,0.00374,0.00652,81.5,76.9,15,120,0,85.8,16.46,0.00,0.00
15min,AgWx,beryljct,423,20AUG2018:19:30:00,87.0,13.24,85.3,85.3,85.5,85.9,85.3,31,31,30,1.274,51.0,51.4,50.7,18.7,17.7,199,10,25.3,0.00197,0.00245,81.5,77.0,15,64,0,84.8,16.46,0.00,0.00
15min,AgWx,beryljct,423,20AUG2018:19:45:00,86.4,13.19,84.7,84.3,84.9,85.3,84.3,32,33,31,1.337,51.7,52.4,51.1,12.76,16.4,198,8.8,22.9,0.00191,0.00239,81.5,77.1,15,96,0,84.3,16.46,0.00,0.00
15min,AgWx,beryljct,423,20AUG2018:20:00:00,85.7,13.17,84.3,84.3,84.4,84.8,84.0,33,33,32,1.309,51.9,52.3,51.4,13.85,14.6,199,9.5,20.1,0.00167,0.00212,81.4,77.2,15,46,0,83.4,16.47,0.00,0.00
15min,AgWx,beryljct,423,20AUG2018:20:15:00,85.0,13.16,84.0,83.8,84.2,84.5,83.8,33,33,32,1.310,51.9,52.2,51.7,14.86,15.2,196,9.9,22.0,0.00161,0.00205,81.3,77.3,15,13,0,82.8,16.47,0.00,0.00
15min,AgWx,beryljct,423,20AUG2018:20:30:00,84.3,13.14,83.0,83.1,83.2,83.9,82.6,34,35,33,1.352,52.2,52.6,51.7,9.84,12.6,203,9.4,18.2,0.00136,0.00178,81.2,77.4,15,3,0,81.4,16.47,0.00,0.00
15min,AgWx,beryljct,423,20AUG2018:20:45:00,83.8,13.13,83.1,83.3,83.2,83.6,82.8,35,35,34,1.353,52.5,52.9,52.2,9.43,13.8,198,9.0,20.9,0.00143,0.00184,81.0,77.5,15,1,0,81.5,16.47,0.00,0.00
15min,AgWx,beryljct,423,20AUG2018:21:00:00,83.5,13.13,83.1,82.9,83.2,83.5,82.9,35,36,34,1.362,52.6,53.0,52.4,11.51,14.4,197,8.8,18.8,0.00146,0.00187,80.8,77.5,16,0,0,81.6,16.47,0.00,0.00
15min,AgWx,beryljct,423,20AUG2018:21:15:00,83.1,13.11,82.5,82.4,82.6,82.9,82.3,36,36,35,1.371,52.7,53.0,52.3,10.37,12.9,199,8.6,20.4,0.00133,0.00173,80.6,77.6,16,0,0,80.8,16.47,0.00,0.00
15min,AgWx,beryljct,423,20AUG2018:21:30:00,82.8,13.11,82.2,82.3,82.3,82.5,82.1,36,36,35,1.327,52.5,52.9,52.1,15.19,12.7,198,8.1,21.1,0.00130,0.00170,80.5,77.6,16,0,0,80.5,16.47,0.00,0.00
15min,AgWx,beryljct,423,20AUG2018:21:45:00,82.5,13.11,82.3,82.1,82.4,82.6,82.1,35,36,35,1.335,52.3,52.7,52.0,13.83,14.2,200,10,19.7,0.00141,0.00181,80.3,77.7,16,0,0,80.6,16.47,0.00,0.00
15min,AgWx,beryljct,423,20AUG2018:22:00:00,82.2,13.1,81.7,81.7,81.8,82.2,81.6,36,37,35,1.331,52.3,52.6,52.0,12.08,12.4,199,9.7,19.0,0.00127,0.00166,80.1,77.7,16,0,0,80.0,16.47,0.00,0.00
15min,AgWx,beryljct,423,20AUG2018:22:15:00,82.0,13.09,81.8,81.9,81.8,82.1,81.5,36,36,35,1.313,52.2,52.4,51.8,19.09,13.5,200,8.4,21.2,0.00133,0.00172,79.9,77.2,16,0,0,80.0,16.47,0.00,0.00
15min,AgWx,beryljct,423,20AUG2018:22:30:00,81.7,13.09,81.3,81.2,81.4,81.9,81.1,36,37,35,1.314,51.9,52.3,51.5,13.99,12.1,198,9.2,17.6,0.00124,0.00162,79.7,77.7,16,0,0,79.6,16.47,0.00,0.00
15min,AgWx,beryljct,423,20AUG2018:22:45:00,81.4,13.08,81.0,80.8,81.1,81.4,80.7,36,36,35,1.280,51.5,51.9,51.1,12.36,11.7,199,10,17.0,0.00120,0.00158,79.5,77.7,16,0,0,79.3,16.47,0.00,0.00
15min,AgWx,beryljct,423,20AUG2018:23:00:00,81.1,13.07,80.8,80.9,80.9,81.1,80.5,35,36,35,1.253,51.0,51.6,50.4,12.71,12.2,201,9.0,20.0,0.00123,0.00161,79.3,77.7,16,0,0,79.0,16.47,0.00,0.00
15min,AgWx,beryljct,423,20AUG2018:23:15:00,81.0,13.06,81.1,81.4,81.1,81.4,80.9,34,35,33,1.234,50.3,50.9,49.7,14.25,14.6,202,7.8,21.2,0.00142,0.00181,79.2,77.7,16,0,0,79.4,16.47,0.00,0.00
15min,AgWx,beryljct,423,20AUG2018:23:30:00,81.0,13.07,80.8,80.7,80.9,81.4,80.6,34,34,34,1.213,50.0,50.5,49.6,13.88,13.3,202,8.7,17.2,0.00134,0.00173,79.0,77.7,16,0,0,79.2,16.47,0.00,0.00
15min,AgWx,beryljct,423,20AUG2018:23:45:00,80.9,13.05,80.6,80.6,80.7,80.9,80.4,34,35,33,1.195,49.4,50.0,49.1,15.41,14.4,202,9.7,22.0,0.00141,0.00179,78.8,77.7,16,0,0,79.0,16.47,0.00,0.00
15min,AgWx,beryljct,423,21AUG2018:00:00:00,80.8,13.04,80.3,80.2,80.4,80.8,80.1,33,34,33,1.176,49.1,49.6,48.7,13.07,13.8,205,9.9,20.5,0.00137,0.00175,78.6,77.6,16,0,0,78.7,16.47,0.00,0.00
15min,AgWx,beryljct,423,21AUG2018:00:15:00,80.5,13.04,79.9,79.8,80.0,80.4,79.8,34,34,33,1.179,48.9,49.4,48.5,11.03,12.8,204,8.6,18.4,0.00129,0.00167,78.5,77.6,16,0,0,78.4,16.47,0.00,0.00
15min,AgWx,beryljct,423,21AUG2018:00:30:00,80.3,13.03,79.9,79.5,79.9,80.2,79.5,34,34,33,1.174,48.9,49.2,48.5,13.28,13.1,203,9.6,19.0,0.00131,0.00168,78.3,77.6,16,0,0,78.3,16.47,0.00,0.00
15min,AgWx,beryljct,423,21AUG2018:00:45:00,80.1,13.03,79.7,79.9,79.7,80.1,79.4,34,35,33,1.172,48.9,49.3,48.6,14.71,13.1,204,8.8,18.7,0.00129,0.00166,78.1,77.5,16,0,0,78.1,16.46,0.00,0.00
15min,AgWx,bigpiney,439,20AUG2018:01:00:00,47.7,12.78,39.0,39.0,38.8,39.3,38.3,81,82,80,0.658,33.6,34.0,32.9,5.305,5.6,205,4.0,6.6,0.00000,0.00001,55.3,54.0,42,0,0,0.0,.,0.00,0.00
15min,AgWx,bigpiney,439,20AUG2018:01:15:00,46.8,12.78,38.9,40.5,39.9,40.8,38.6,79,82,76,0.649,33.8,34.3,33.4,1.425,4.4,207,6.5,5.3,-0.00001,0.00000,55.3,54.0,42,0,0,0.0,.,0.00,0.00
15min,AgWx,bigpiney,439,20AUG2018:01:30:00,46.2,12.76,45.1,43.8,41.9,44.2,39.4,75,80,69,0.677,34.5,35.1,32.8,1.337,1.7,290,17,2.5,-0.00010,-0.00013,55.2,54.1,42,0,0,0.0,.,0.00,0.00
15min,AgWx,bigpiney,439,20AUG2018:01:45:00,45.8,12.76,43.8,43.4,43.4,44.1,42.5,69,72,67,0.670,34.1,34.7,33.4,3.179,2.7,283,7.0,3.9,-0.00003,-0.00003,55.2,54.0,42,0,0,0.0,.,0.00,0.00
15min,AgWx,bigpiney,439,20AUG2018:02:00:00,45.6,12.76,48.0,47.8,46.2,47.8,43.3,63,70,59,0.666,34.4,34.7,33.9,1.951,2.6,286,2.5,3.5,-0.00002,-0.00000,55.1,54.1,42,0,0,0.0,.,0.00,0.00
15min,AgWx,bigpiney,439,20AUG2018:02:15:00,45.6,12.75,43.8,44.4,46.3,47.8,43.5,62,69,59,0.665,34.0,34.6,32.9,2.521,2.6,284,6.4,3.5,-0.00001,0.00001,55.0,54.0,42,0,0,0.0,.,0.00,0.00
15min,AgWx,bigpiney,439,20AUG2018:02:30:00,45.6,12.73,49.3,47.7,45.1,47.7,42.7,66,71,62,0.693,34.4,35.2,33.6,3.179,2.9,284,7.9,3.5,-0.00001,0.00001,55.0,54.0,42,0,0,0.0,.,0.00,0.00
15min,AgWx,bigpiney,439,20AUG2018:02:45:00,45.4,12.72,37.4,37.5,42.0,47.9,37.5,70,81,60,0.604,32.9,35.2,31.4,2.718,1.8,264,29,3.6,-0.00008,-0.00010,54.9,54.0,42,0,0,0.0,.,0.00,0.00
15min,AgWx,bigpiney,439,20AUG2018:03:00:00,44.6,12.72,42.9,41.8,38.4,41.8,35.5,78,86,71,0.640,32.3,33.3,30.1,2.85,2.2,262,41,3.6,-0.00008,-0.00010,54.8,54.0,42,0,0,0.0,.,0.00,0.00
15min,AgWx,bigpiney,439,20AUG2018:03:15:00,43.8,12.71,35.8,38.5,40.0,42.5,37.6,73,79,68,0.588,32.0,33.1,29.6,2.455,2.2,264,31,3.6,-0.00007,-0.00008,54.7,54.0,42,0,0,0.0,.,0.00,0.00
15min,AgWx,bigpiney,439,20AUG2018:03:30:00,43.0,12.7,33.1,33.2,34.9,38.0,33.2,82,86,74,0.550,29.8,32.0,28.8,4.406,3.9,217,7.9,4.9,-0.00003,-0.00003,54.7,54.0,42,0,0,0.0,.,0.00,0.00
15min,AgWx,bigpiney,439,20AUG2018:03:45:00,42.0,12.68,34.7,34.0,33.4,34.1,32.9,88,89,86,0.583,30.2,30.9,29.4,3.661,4.1,222,5.0,4.9,-0.00005,-0.00006,54.6,54.0,42,0,0,0.0,.,0.00,0.00
15min,AgWx,bigpiney,439,20AUG2018:04:00:00,41.3,12.67,36.4,35.6,34.9,35.6,34.1,87,88,85,0.601,31.3,31.6,30.9,2.609,3.1,230,5.5,4.1,-0.00007,-0.00008,54.5,54.0,42,0,0,0.0,.,0.00,0.00
15min,AgWx,bigpiney,439,20AUG2018:04:15:00,40.8,12.65,34.7,35.1,36.9,39.2,35.1,82,85,75,0.569,31.8,33.5,29.9,4.056,3.2,224,10,4.5,-0.00006,-0.00006,54.4,53.9,42,0,0,0.0,.,0.00,0.00
15min,AgWx,bigpiney,439,20AUG2018:04:30:00,40.4,12.65,33.1,33.1,33.4,35.1,32.9,86,88,82,0.554,29.7,30.3,29.4,4.034,4.1,216,5.1,4.9,-0.00005,-0.00005,54.4,54.0,42,0,0,0.0,.,0.00,0.00
15min,AgWx,bigpiney,439,20AUG2018:04:45:00,39.9,12.64,36.6,35.1,33.8,35.1,32.8,87,89,86,0.593,30.5,31.4,29.4,3.814,3.8,222,6.3,5.0,-0.00006,-0.00006,54.3,53.9,42,0,0,0.0,.,0.00,0.00
15min,AgWx,bigpiney,439,20AUG2018:05:00:00,39.6,12.62,36.1,35.8,35.4,36.0,35.1,85,86,84,0.600,31.5,32.1,30.9,3.244,3.4,233,8.6,4.4,-0.00006,-0.00007,54.2,53.9,42,0,0,0.0,.,0.00,0.00
15min,AgWx,bigpiney,439,20AUG2018:05:15:00,39.6,12.61,34.9,35.0,35.4,35.9,35.0,85,85,84,0.584,31.2,31.7,30.9,2.828,3.6,219,5.1,4.3,-0.00006,-0.00006,54.1,53.8,42,0,0,0.0,.,0.00,0.00
15min,AgWx,bigpiney,439,20AUG2018:05:30:00,39.6,12.6,34.2,34.3,35.3,36.0,34.2,85,86,83,0.572,31.1,32.1,30.2,3.551,3.5,215,6.7,4.5,-0.00006,-0.00006,54.0,53.9,42,0,0,0.0,.,0.00,0.00
15min,AgWx,bigpiney,439,20AUG2018:05:45:00,39.4,12.59,36.6,35.9,34.5,36.0,33.5,87,88,85,0.605,31.0,32.0,29.7,4.582,3.8,236,12,4.6,-0.00006,-0.00006,53.9,53.8,42,0,0,0.0,.,0.00,0.00
15min,AgWx,bigpiney,439,20AUG2018:06:00:00,39.3,12.57,36.9,36.2,35.7,36.2,35.3,85,86,84,0.608,31.6,32.0,31.1,4.911,4.2,224,8.1,5.3,-0.00004,-0.00004,53.8,53.8,42,0,0,0.0,.,0.00,0.00
15min,AgWx,bigpiney,439,20AUG2018:06:15:00,39.3,12.56,35.6,35.7,36.3,36.5,35.6,84,84,83,0.595,31.8,32.2,31.3,3.814,4.2,228,11,5.7,-0.00004,-0.00004,53.7,53.8,42,0,0,0.0,.,0.00,0.00
15min,AgWx,bigpiney,439,20AUG2018:06:30:00,39.3,12.55,36.0,35.1,35.0,35.6,34.6,85,86,84,0.597,31.0,31.5,30.5,5.437,4.3,216,7.7,5.5,-0.00004,-0.00004,53.6,53.8,42,1,0,0.0,.,0.00,0.00
15min,AgWx,bigpiney,439,20AUG2018:06:45:00,39.2,12.54,35.9,35.7,36.1,36.6,35.2,85,87,84,0.598,32.0,32.4,31.4,3.288,4.3,226,6.0,5.4,-0.00003,-0.00003,53.6,53.7,42,5,0,0.0,.,0.00,0.00
15min,AgWx,bigpiney,439,20AUG2018:07:00:00,39.2,12.56,34.3,34.2,35.4,36.0,34.2,85,87,84,0.579,31.5,32.1,30.4,3.508,3.4,217,5.5,4.8,-0.00004,0.00002,53.5,53.7,42,15,0,0.0,.,0.00,0.00
15min,AgWx,bigpiney,439,20AUG2018:07:15:00,39.2,12.59,35.4,34.9,34.5,34.9,34.1,88,89,87,0.606,31.3,31.9,30.6,3.727,3.2,216,6.4,4.4,0.00000,0.00005,53.4,53.7,42,35,0,0.0,.,0.00,0.00
15min,AgWx,bigpiney,439,20AUG2018:07:30:00,39.3,12.62,38.5,37.8,36.6,37.8,35.0,87,89,86,0.661,33.2,34.0,31.9,2.981,2.8,216,8.8,4.0,0.00011,0.00016,53.3,53.6,42,64,0,0.0,.,0.00,0.00
15min,AgWx,bigpiney,439,20AUG2018:07:45:00,39.9,12.72,40.2,39.5,38.3,39.5,37.9,87,88,85,0.716,34.8,36.0,34.0,0.285,2.1,208,8.4,3.4,0.00025,0.00030,53.2,53.6,42,98,0,0.0,.,0.00,0.00
15min,AgWx,bigpiney,439,20AUG2018:08:00:00,41.0,12.85,43.8,43.3,41.6,43.3,39.5,85,87,84,0.801,37.4,38.8,36.0,0.745,0.4,220,0.1,1.1,0.00044,0.00047,53.2,53.6,42,144,0,0.0,.,0.00,0.00
15min,AgWx,bigpiney,439,20AUG2018:08:15:00,42.7,12.98,46.3,45.8,44.7,45.8,43.3,81,85,77,0.852,39.2,40.4,38.4,0.438,1.2,185,12,1.9,0.00064,0.00071,53.1,53.6,42,164,0,0.0,.,0.00,0.00
15min,AgWx,bigpiney,439,20AUG2018:08:30:00,44.5,13.37,48.6,48.1,47.0,48.1,45.8,76,82,73,0.842,39.9,40.7,38.2,0,0.3,226,12,1.6,0.00096,0.00104,53.0,53.5,42,237,0,0.0,.,0.00,0.00